{"data":{"norad_id":67189,"intl_designator":"2025-303AC","name":"STARLINK-35889","alt_names":[],"object_type":"PAYLOAD","status":"ACTIVE","operator":null,"country":"US","launch_date":"2025-12-17","launch_site_code":"AFETR","launch_vehicle":null,"mission":null,"orbit_class":"UNKNOWN","rcs_meters":null,"size_class":null,"mass_kg":null,"dimensions":null,"purposes":["comms"],"wikipedia_slug":null,"has_3d_model":false,"image_url":null,"decayed_at":null,"tle_current":{"epoch":"2026-05-24T22:44:16.027872Z","epoch_age_seconds":82803,"freshness":"FRESH","line1":"1 67189U 25303AC  26144.94740773  .00020160  00000+0  73993-3 0  9994","line2":"2 67189  42.9992 240.4038 0001279 273.4865  86.5840 15.27588875 24398","mean_motion":15.27588875,"eccentricity":0.0001279,"inclination_deg":42.9992,"raan_deg":240.4038,"arg_perigee_deg":273.4865,"mean_anomaly_deg":86.584,"bstar":0.00073993,"rev_number":2439,"period_min":94.266201041822,"perigee_km":482.14497892279,"apogee_km":483.90006352832,"semimajor_km":6861.1595212256,"source":"CELESTRAK","updated_at":"2026-05-25T13:38:21.485578Z"}}}